Home > Weather > Udon Thani > Past weeks

Flag for Thailand Weather for the Past 2 Weeks in Udon Thani, Thailand

Now
70 °F

Fog.


Feels Like: 70 °F
Forecast: 62 / 95 °F
Wind: 2 mph from North

Location: Udon Thani Airport

Current Time: Feb 13, 2016 at 12:22:48 AM

Latest Report: Feb 12, 2016 at 10:00 PM


Visibility: 2 mi

Pressure: 29.86 "Hg

Humidity: 69%

Dew point: 59 °F

Location of Udon ThaniLocation

Historic Weather in Udon Thani — Graph

°F

Udon Thani Temperature Yesterday

Maximum temperature yesterday: 93 °F (at 3:00 PM)
Minimum temperature yesterday: 59 °F (at 6:00 AM)
Average temperature yesterday: 77 °F

High & Low Weather Summary for the Past Weeks

 TemperatureHumidityPressure
High93 °F (Feb 12, 3:00 PM)100% (Jan 29, 4:00 AM)30.30 "Hg (Jan 29, 4:00 AM)
Low45 °F (Feb 8, 7:00 AM)19% (Feb 8, 4:00 PM)29.77 "Hg (Feb 12, 4:00 PM)
Average73 °F56%29.99 "Hg
* Reported Jan 28 10:00 PM — Feb 12 10:00 PM, Udon Thani, Weather by CustomWeather, © 2016

Note: Actual official high and low records may vary slightly from our data, if they occured in-between our weather recording intervals... More about our weather records

Advertising

Udon Thani Weather History for the Previous 24 Hours

 ConditionsComfort  
Time TempWeatherWind HumidityBarometerVisibility
10:00 PM
Fri, Feb 12
70 °FFog.2 mph69%29.86 "Hg2 mi
9:00 PM72 °FHaze.No wind61%29.86 "Hg2 mi
8:00 PM75 °FHaze.No wind54%29.83 "Hg2 mi
7:00 PM79 °FHaze.3 mph48%29.83 "Hg2 mi
6:00 PM88 °FHaze.6 mph31%29.80 "Hg3 mi
5:00 PM91 °FHaze.6 mph26%29.80 "Hg3 mi
4:00 PM93 °FClear.5 mph23%29.77 "Hg4 mi
3:00 PM93 °FClear.9 mph24%29.80 "Hg4 mi
2:00 PM90 °FClear.6 mph29%29.83 "Hg4 mi
1:00 PM88 °FClear.5 mph33%29.86 "Hg4 mi
12:00 PM86 °FClear.3 mph35%29.92 "Hg4 mi
11:00 AM82 °FClear.2 mph40%29.95 "Hg4 mi
10:00 AM75 °FClear.5 mph54%29.98 "Hg4 mi
9:00 AM70 °FHaze.5 mph64%29.95 "Hg2 mi
8:00 AM63 °FFog.3 mph77%29.95 "Hg2 mi
7:00 AM59 °FFog.2 mph82%29.92 "Hg2 mi
6:00 AM59 °FFog.No wind88%29.89 "Hg1 mi
4:00 AM61 °FFog.No wind83%29.86 "Hg3 mi
Weather by CustomWeather, © 2016

See weather overviewHow to use our weather pages